Dillon, MT

1:18 PM MST on February 20, 2018 (GMT -0700)
Dillon

Weather History for KDLN - March, 2013

Change the Weather History Date:

Monday, March 18, 2013

  Actual Average Record
Temperature  
Mean Temperature 28 °F 35 °F  
Max Temperature 39 °F 47 °F 65 °F (2004)
Min Temperature 16 °F 23 °F -12 °F (1965)
Degree Days  
Heating Degree Days 37    
Month to date heating degree days 527  
Since 1 July heating degree days 5942  
Cooling Degree Days 0    
Month to date cooling degree days 0  
Year to date cooling degree days 0  
Moisture  
Dew Point 7 °F    
Average Humidity 44    
Maximum Humidity 67    
Minimum Humidity 21    
Precipitation  
Precipitation 0.00 in 0.01 in 0.40 in (2012)
Month to date precipitation 0.07 0.26  
Year to date precipitation 0.33 0.78  
Snow  
Snow 0.00 in - - ()
Snow Depth 0.00 in    
Sea Level Pressure  
Sea Level Pressure 30.01 in    
Wind  
Wind Speed 14 mph (WSW)    
Max Wind Speed 32 mph    
Max Gust Speed 40 mph    
Visibility 10 miles    
Events      
T = Trace of Precipitation, MM = Missing Value Source: NWS Daily Summary

Daily Weather History Graph

Daily Weather History Graph

Search for Another Location

Airport or City:

Trip Planner

Search our weather history database for the weather conditions in past years. The results will help you decide how hot, cold, wet, or windy it might be!

Date:

Astronomy

Mar. 18, 2013 Rise Set
Actual Time 7:36 AM MDT 7:40 PM MDT
Civil Twilight 7:07 AM MDT 8:09 PM MDT
Nautical Twilight 6:32 AM MDT 8:44 PM MDT
Astronomical Twilight 5:57 AM MDT 9:19 PM MDT
Moon 11:23 AM MDT (3/18) 1:58 AM MDT (3/18)
Length of Visible Light 13h 02m
Length of Day
12h 04m
Waxing Crescent, 41% of the Moon is Illuminated
Mar 18
Waxing Crescent
Mar 19
First Quarter
Mar 27
Full
Apr 2
Last Quarter
Apr 10
New

Hourly Weather History & Observations

Time (MDT) Temp. Windchill Dew Point Humidity Pressure Visibility Wind Dir Wind Speed Gust Speed Precip Events Conditions
12:53 AM 21.9 °F 8.2 °F 3.9 °F 46% 30.01 in 10.0 mi SW 16.1 mph - N/A   Clear
1:53 AM 19.9 °F 5.2 °F 3.9 °F 50% 30.02 in 10.0 mi WSW 17.3 mph - N/A   Partly Cloudy
2:53 AM 21.9 °F 9.2 °F 3.9 °F 46% 30.02 in 10.0 mi SW 13.8 mph - N/A   Partly Cloudy
3:53 AM 21.9 °F 9.8 °F 3.9 °F 46% 30.02 in 10.0 mi SSW 12.7 mph - N/A   Overcast
4:53 AM 19.9 °F 10.1 °F 5.0 °F 52% 30.02 in 10.0 mi SW 8.1 mph - N/A   Mostly Cloudy
5:53 AM 19.0 °F 7.5 °F 7.0 °F 59% 30.03 in 10.0 mi SSE 10.4 mph - N/A   Scattered Clouds
6:53 AM 16.0 °F 3.6 °F 7.0 °F 68% 30.05 in 10.0 mi SSW 10.4 mph - N/A   Partly Cloudy
7:53 AM 19.9 °F 9.3 °F 10.0 °F 65% 30.06 in 10.0 mi SSW 9.2 mph - N/A   Overcast
8:53 AM 24.1 °F 15.2 °F 10.0 °F 55% 30.05 in 10.0 mi South 8.1 mph - N/A   Mostly Cloudy
9:53 AM 28.9 °F 18.6 °F 7.0 °F 40% 30.04 in 10.0 mi SSW 12.7 mph 17.3 mph N/A   Overcast
10:53 AM 30.0 °F 18.7 °F 7.0 °F 38% 30.04 in 10.0 mi WSW 16.1 mph 26.5 mph N/A   Mostly Cloudy
11:53 AM 33.1 °F 20.6 °F 6.1 °F 32% 30.00 in 10.0 mi West 23.0 mph 29.9 mph N/A   Partly Cloudy
12:53 PM 35.1 °F 24.1 °F 6.1 °F 30% 29.99 in 10.0 mi WSW 19.6 mph 34.5 mph N/A   Clear
1:53 PM 37.0 °F 24.7 °F 3.9 °F 25% 29.96 in 10.0 mi WSW 28.8 mph 36.8 mph N/A   Clear
2:53 PM 37.0 °F 25.1 °F 1.9 °F 23% 29.93 in 10.0 mi West 26.5 mph 34.5 mph N/A   Clear
3:53 PM 37.0 °F 27.4 °F 1.9 °F 23% 29.92 in 10.0 mi WSW 17.3 mph 23.0 mph N/A   Partly Cloudy
4:53 PM 39.0 °F 27.8 °F 3.0 °F 22% 29.93 in 10.0 mi West 26.5 mph 31.1 mph N/A   Mostly Cloudy
5:53 PM 35.1 °F 25.9 °F 9.0 °F 34% 29.96 in 10.0 mi West 13.8 mph - N/A   Clear
6:53 PM 33.1 °F 22.2 °F 6.1 °F 32% 29.99 in 10.0 mi WNW 17.3 mph - N/A   Partly Cloudy
7:53 PM 26.1 °F 17.6 °F 14.0 °F 60% 30.03 in 10.0 mi NW 8.1 mph - N/A   Partly Cloudy
8:53 PM 26.1 °F 19.4 °F 14.0 °F 60% 30.05 in 10.0 mi WNW 5.8 mph - N/A   Mostly Cloudy
9:53 PM 25.0 °F 20.7 °F 14.0 °F 63% 30.05 in 10.0 mi Variable 3.5 mph - N/A   Mostly Cloudy
10:53 PM 26.1 °F 20.5 °F 12.9 °F 58% 30.05 in 10.0 mi WSW 4.6 mph - N/A   Scattered Clouds
11:53 PM 26.1 °F 14.5 °F 15.1 °F 63% 30.04 in 10.0 mi West 13.8 mph 20.7 mph N/A   Clear